Regional Weather Roundup
Issued by NWS Charleston, WV

Home | Current Version | Previous Version | Graphics & Text | Print | Product List | Glossary On
Versions: 1 2 3 4 5 6 7 8 9 10 11 12 13 14 15 16 17 18 19 20 21 22 23 24 25 26 27 28 29 30 31 32 33 34 35 36 37 38 39 40 41 42 43 44 45 46 47 48 49 50
000
ASUS41 KRLX 262010
RWRRLX
West Virginia Regional Weather Roundup
National Weather Service Charleston WV
300 PM EST THU FEB 26 2015

Note: "fair" indicates few or no clouds below 12,000 feet with no
significant weather and/or obstructions to visibility.

WVZ003-262100-
Northern Panhandle of West Virginia

CITY           SKY/WX    TMP DP  RH WIND       PRES   REMARKS
WHEELING       CLOUDY    22  11  62 N6        29.96R
$$

WVZ009-262100-
Northwest West Virginia

CITY           SKY/WX    TMP DP  RH WIND       PRES   REMARKS
PARKERSBURG    CLOUDY    28  11  48 NW10      30.02R
$$

WVZ006-262100-
Western West Virginia

CITY           SKY/WX    TMP DP  RH WIND       PRES   REMARKS
HUNTINGTON     SUNNY     35  17  47 NW10G17   29.96S
$$

WVZ015-262100-
West Central West Virginia

CITY           SKY/WX    TMP DP  RH WIND       PRES   REMARKS
CHARLESTON     PTSUNNY   34  19  54 S6        29.94F
$$

WVZ022-031-262100-
North Central West Virginia

CITY           SKY/WX    TMP DP  RH WIND       PRES   REMARKS
CLARKSBURG     CLOUDY    33  18  53 NW7       29.91S
MORGANTOWN     FLURRIES  32  17  54 NW3       29.93R
$$

WVZ025-035-042-045-262100-
Southern West Virginia

CITY           SKY/WX    TMP DP  RH WIND       PRES   REMARKS
BECKLEY        CLOUDY    28  24  85 N14       29.86R
LOGAN            N/A     36  21  55 CALM      29.87F
BLUEFIELD      CLOUDY    30  25  81 NW9       29.85R
LEWISBURG      CLOUDY    36  27  70 NW7       29.85R
$$

WVZ047-262100-
Northern Mountains of West Virginia

CITY           SKY/WX    TMP DP  RH WIND       PRES   REMARKS
ELKINS         CLOUDY   N/A N/A N/A W10       29.88R
$$

WVZ052-262100-
Eastern Panhandle of West Virginia

CITY           SKY/WX    TMP DP  RH WIND       PRES   REMARKS
MARTINSBURG    CLOUDY    35  21  56 CALM      29.94R
PETERSBURG     CLOUDY    34  20  57 CALM      29.92R
$$



USA.gov is the U.S. government's official web portal to all federal, state and local government web resources and services.